Regional Weather Roundup
Issued by NWS

Home | Current Version | Previous Version | Graphics & Text | Print | Product List | Glossary On
Versions: 1 2 3 4 5 6 7 8 9 10 11 12 13 14 15 16 17 18 19 20 21 22 23 24 25 26 27 28 29 30 31 32 33 34 35 36 37 38 39 40 41 42 43 44 45 46 47 48 49 50
000
ASUS43 KLSX 210407
RWRMO

WEATHER SUMMARY FOR MISSOURI
NATIONAL WEATHER SERVICE SPRINGFIELD MO
1000 PM CST FRI JAN 20 2017

NOTE: "FAIR" INDICATES FEW OR NO CLOUDS BELOW 12,000 FEET WITH NO
       SIGNIFICANT WEATHER AND/OR OBSTRUCTIONS TO VISIBILITY.
       CURRENT SKY AND/OR WEATHER CONDITIONS ARE NOT AVAILABLE FOR
       CHILLICOTHE AND FARMINGTON.

MOZ001>031-035>038-043-044-053-054-210500-
...NORTHERN AND WESTERN MISSOURI...

CITY           SKY/WX    TMP DP  RH WIND       PRES   REMARKS
KANSAS CTY INT PTCLDY    47  44  90 S12       29.48R
KANSAS C DTWN  LGT RAIN  50  47  89 SW6       29.49R
LEE`S SUMMIT   MOCLDY    46  45  96 W6        29.48S
ST JOSEPH      CLOUDY    45  45 100 SW6       29.46R FOG
CHILLICOTHE      N/A     46  46 100 S3        29.47F
KIRKSVILLE     CLOUDY    47  47 100 SE9       29.50F FOG

$$
MOZ066>068-077>081-088>096-101>105-210500-
...SOUTHWEST MISSOURI...

CITY           SKY/WX    TMP DP  RH WIND       PRES   REMARKS
SPRINGFIELD    CLEAR     54  38  54 S13       29.55R
JOPLIN         CLEAR     55  38  52 S14       29.51F
BRANSON        CLEAR     57  37  47 S7        29.59S

$$
MOZ032>034-039>042-045>050-055>058-069>072-210500-
...CENTRAL MISSOURI...

CITY           SKY/WX    TMP DP  RH WIND       PRES   REMARKS
COLUMBIA       CLEAR     49  46  90 S12       29.51S
JEFFERSON CITY CLEAR     44  43  96 E3        29.53R
ROLLA          CLEAR     53  48  83 S10       29.55R
SEDALIA        CLEAR     49  44  83 S8        29.49F
WHITEMAN AFB   CLEAR     44  44 100 S7        29.46F
WARRENSBURG    PTCLDY    41  41 100 S5        29.47F FOG
OSAGE BEACH    CLEAR     51  45  79 S7        29.54S

$$
MOZ051-052-059>065-210500-
...EAST CENTRAL MISSOURI...

CITY           SKY/WX    TMP DP  RH WIND       PRES   REMARKS
ST LOUIS INTL  CLEAR     54  50  86 SE9       29.58S
SPIRIT OF STL  CLEAR     54  52  93 VRB3      29.56S
ST CHARLES     CLEAR     45  45 100 E6        29.57S FOG

$$
MOZ072>076-082>087-097>100-106>115-210500-
...SOUTH CENTRAL AND SOUTHEAST MISSOURI...

CITY           SKY/WX    TMP DP  RH WIND       PRES   REMARKS
CAPE GIRARDEAU CLEAR     53  49  86 S9        29.65R
FARMINGTON     CLEAR     54  51  90 S10       29.62R
POPLAR BLUFF   CLEAR     56  53  90 S10       29.64R
WEST PLAINS    CLEAR     55  46  71 S9        29.62R

$$



USA.gov is the U.S. government's official web portal to all federal, state and local government web resources and services.